Time,TemperatureF,DewpointF,PressureIn,WindDirection,WindDirectionDegrees,WindSpeedMPH,WindSpeedGustMPH,Humidity,HourlyPrecipIn,Conditions,Clouds,dailyrainin,SoftwareType,DateUTC
2013-02-14 00:00:00,37.0,34.6,29.85,NE,52,0.0,0.0,91,0.00,,,0.00,Wunderground v.1.15,2013-02-14 05:00:00,
2013-02-14 00:05:00,37.0,34.6,29.85,NE,52,0.0,0.0,91,0.00,,,0.00,Wunderground v.1.15,2013-02-14 05:05:00,
2013-02-14 00:10:00,36.9,34.5,29.85,NE,52,0.0,0.0,91,0.00,,,0.00,Wunderground v.1.15,2013-02-14 05:10:00,
2013-02-14 00:15:00,36.7,34.3,29.85,NE,52,0.0,0.0,91,0.00,,,0.00,Wunderground v.1.15,2013-02-14 05:15:00,
2013-02-14 00:20:00,36.5,34.1,29.85,NE,52,0.0,0.0,91,0.00,,,0.00,Wunderground v.1.15,2013-02-14 05:20:00,
2013-02-14 00:25:00,36.3,33.9,29.85,NE,52,0.0,0.0,91,0.00,,,0.00,Wunderground v.1.15,2013-02-14 05:25:00,
2013-02-14 00:30:00,36.2,34.1,29.86,NE,52,0.0,0.0,92,0.00,,,0.00,Wunderground v.1.15,2013-02-14 05:30:00,
2013-02-14 00:40:00,36.0,33.9,29.86,NE,52,0.0,0.0,92,0.00,,,0.00,Wunderground v.1.15,2013-02-14 05:40:00,
2013-02-14 00:45:00,35.9,33.8,29.86,NE,52,0.0,0.0,92,0.00,,,0.00,Wunderground v.1.15,2013-02-14 05:45:00,
2013-02-14 00:55:00,35.5,33.4,29.87,NE,52,0.0,0.0,92,0.00,,,0.00,Wunderground v.1.15,2013-02-14 05:55:00,
2013-02-14 01:00:00,35.3,33.2,29.87,NE,52,0.0,0.0,92,0.00,,,0.00,Wunderground v.1.15,2013-02-14 06:00:00,
2013-02-14 01:05:00,35.3,33.2,29.87,NE,52,0.0,0.0,92,0.00,,,0.00,Wunderground v.1.15,2013-02-14 06:05:00,
2013-02-14 01:10:00,35.1,33.0,29.87,NE,52,0.0,0.0,92,0.00,,,0.00,Wunderground v.1.15,2013-02-14 06:10:00,
2013-02-14 01:20:00,34.6,32.8,29.88,NE,52,0.0,0.0,93,0.00,,,0.00,Wunderground v.1.15,2013-02-14 06:20:00,
2013-02-14 01:25:00,34.5,32.7,29.87,NE,52,0.0,0.0,93,0.00,,,0.00,Wunderground v.1.15,2013-02-14 06:25:00,
2013-02-14 01:30:00,34.4,32.6,29.87,NE,52,0.0,0.0,93,0.00,,,0.00,Wunderground v.1.15,2013-02-14 06:30:00,
2013-02-14 01:40:00,34.1,32.6,29.88,NE,52,0.0,0.0,94,0.00,,,0.00,Wunderground v.1.15,2013-02-14 06:40:00,
2013-02-14 01:45:00,34.0,32.5,29.88,NE,52,0.0,0.0,94,0.00,,,0.00,Wunderground v.1.15,2013-02-14 06:45:00,
2013-02-14 01:50:00,33.9,32.4,29.88,NE,52,0.0,0.0,94,0.00,,,0.00,Wunderground v.1.15,2013-02-14 06:50:00,
2013-02-14 02:00:00,33.6,32.1,29.88,NE,52,0.0,0.0,94,0.00,,,0.00,Wunderground v.1.15,2013-02-14 07:00:00,
2013-02-14 02:05:00,33.6,32.3,29.88,NE,52,0.0,0.0,95,0.00,,,0.00,Wunderground v.1.15,2013-02-14 07:05:00,
2013-02-14 02:10:00,33.5,32.2,29.88,NE,52,0.0,0.0,95,0.00,,,0.00,Wunderground v.1.15,2013-02-14 07:10:00,
2013-02-14 02:15:00,33.5,32.2,29.88,NE,52,0.0,0.0,95,0.00,,,0.00,Wunderground v.1.15,2013-02-14 07:15:00,
2013-02-14 02:25:00,33.5,32.2,29.88,NE,52,0.0,0.0,95,0.00,,,0.00,Wunderground v.1.15,2013-02-14 07:25:00,
2013-02-14 02:30:00,33.3,32.0,29.89,NE,52,0.0,0.0,95,0.00,,,0.00,Wunderground v.1.15,2013-02-14 07:30:00,
2013-02-14 02:35:00,33.2,31.9,29.89,NE,52,0.0,0.0,95,0.00,,,0.00,Wunderground v.1.15,2013-02-14 07:35:00,
2013-02-14 02:45:00,33.0,31.7,29.89,NE,52,0.0,0.0,95,0.00,,,0.00,Wunderground v.1.15,2013-02-14 07:45:00,
2013-02-14 02:50:00,32.9,31.6,29.89,NE,52,0.0,0.0,95,0.00,,,0.00,Wunderground v.1.15,2013-02-14 07:50:00,
2013-02-14 02:55:00,32.8,31.5,29.90,NE,52,0.0,0.0,95,0.00,,,0.00,Wunderground v.1.15,2013-02-14 07:55:00,
2013-02-14 03:05:00,32.6,31.3,29.89,NE,52,0.0,0.0,95,0.00,,,0.00,Wunderground v.1.15,2013-02-14 08:05:00,
2013-02-14 03:10:00,32.7,31.7,29.90,NE,52,0.0,0.0,96,0.00,,,0.00,Wunderground v.1.15,2013-02-14 08:10:00,
2013-02-14 03:15:00,32.8,31.8,29.90,NE,52,0.0,0.0,96,0.00,,,0.00,Wunderground v.1.15,2013-02-14 08:15:00,
2013-02-14 03:25:00,32.9,31.9,29.90,NE,52,0.0,0.0,96,0.00,,,0.00,Wunderground v.1.15,2013-02-14 08:25:00,
2013-02-14 03:30:00,32.8,31.5,29.90,NE,52,0.0,0.0,95,0.00,,,0.00,Wunderground v.1.15,2013-02-14 08:30:00,
2013-02-14 03:35:00,32.8,31.5,29.91,NE,52,0.0,0.0,95,0.00,,,0.00,Wunderground v.1.15,2013-02-14 08:35:00,
2013-02-14 03:40:00,32.8,31.8,29.91,NE,52,0.0,0.0,96,0.00,,,0.00,Wunderground v.1.15,2013-02-14 08:40:00,
2013-02-14 03:50:00,32.8,31.8,29.91,NE,52,0.0,0.0,96,0.00,,,0.00,Wunderground v.1.15,2013-02-14 08:50:00,
2013-02-14 03:55:00,32.9,31.9,29.91,NE,52,0.0,0.0,96,0.00,,,0.00,Wunderground v.1.15,2013-02-14 08:55:00,
2013-02-14 04:00:00,32.9,31.6,29.91,NE,52,0.0,0.0,95,0.00,,,0.00,Wunderground v.1.15,2013-02-14 09:00:00,
2013-02-14 04:10:00,32.8,31.5,29.92,NE,52,0.0,0.0,95,0.00,,,0.00,Wunderground v.1.15,2013-02-14 09:10:00,
2013-02-14 04:15:00,32.9,31.6,29.92,NE,52,0.0,0.0,95,0.00,,,0.00,Wunderground v.1.15,2013-02-14 09:15:00,
2013-02-14 04:20:00,32.9,31.6,29.92,NE,52,0.0,0.0,95,0.00,,,0.00,Wunderground v.1.15,2013-02-14 09:20:00,
2013-02-14 04:30:00,32.6,31.3,29.92,NE,52,0.0,0.0,95,0.00,,,0.00,Wunderground v.1.15,2013-02-14 09:30:00,
2013-02-14 04:35:00,32.5,31.0,29.92,NE,52,0.0,0.0,94,0.00,,,0.00,Wunderground v.1.15,2013-02-14 09:35:00,
2013-02-14 04:40:00,32.3,30.8,29.93,NE,52,0.0,0.0,94,0.00,,,0.00,Wunderground v.1.15,2013-02-14 09:40:00,
2013-02-14 04:45:00,32.1,30.8,29.93,NE,52,0.0,0.0,95,0.00,,,0.00,Wunderground v.1.15,2013-02-14 09:45:00,
2013-02-14 04:55:00,31.8,30.5,29.93,NE,52,0.0,0.0,95,0.00,,,0.00,Wunderground v.1.15,2013-02-14 09:55:00,
2013-02-14 05:00:00,31.7,30.4,29.94,NE,52,0.0,0.0,95,0.00,,,0.00,Wunderground v.1.15,2013-02-14 10:00:00,
2013-02-14 05:10:00,31.5,30.2,29.94,NE,52,0.0,0.0,95,0.00,,,0.00,Wunderground v.1.15,2013-02-14 10:10:00,
2013-02-14 05:15:00,31.3,30.0,29.94,NE,52,0.0,0.0,95,0.00,,,0.00,Wunderground v.1.15,2013-02-14 10:15:00,
2013-02-14 05:20:00,31.2,29.9,29.94,NE,52,0.0,0.0,95,0.00,,,0.00,Wunderground v.1.15,2013-02-14 10:20:00,
2013-02-14 05:25:00,31.1,29.8,29.94,NE,52,0.0,0.0,95,0.00,,,0.00,Wunderground v.1.15,2013-02-14 10:25:00,
2013-02-14 05:35:00,30.8,29.5,29.95,NE,52,0.0,0.0,95,0.00,,,0.00,Wunderground v.1.15,2013-02-14 10:35:00,
2013-02-14 05:40:00,30.7,29.4,29.95,NE,52,0.0,0.0,95,0.00,,,0.00,Wunderground v.1.15,2013-02-14 10:40:00,
2013-02-14 05:50:00,30.5,29.2,29.95,NE,52,0.0,0.0,95,0.00,,,0.00,Wunderground v.1.15,2013-02-14 10:50:00,
2013-02-14 05:55:00,30.4,29.1,29.95,NE,52,0.0,0.0,95,0.00,,,0.00,Wunderground v.1.15,2013-02-14 10:55:00,
2013-02-14 06:00:00,30.3,29.3,29.96,NE,52,0.0,0.0,96,0.00,,,0.00,Wunderground v.1.15,2013-02-14 11:00:00,
2013-02-14 06:05:00,30.3,29.3,29.96,NE,52,0.0,0.0,96,0.00,,,0.00,Wunderground v.1.15,2013-02-14 11:05:00,
2013-02-14 06:15:00,30.2,29.2,29.97,NE,52,0.0,0.0,96,0.00,,,0.00,Wunderground v.1.15,2013-02-14 11:15:00,
2013-02-14 06:20:00,30.1,29.1,29.97,NE,52,0.0,0.0,96,0.00,,,0.00,Wunderground v.1.15,2013-02-14 11:20:00,
2013-02-14 06:30:00,29.9,28.9,29.97,NE,52,0.0,0.0,96,0.00,,,0.00,Wunderground v.1.15,2013-02-14 11:30:00,
2013-02-14 06:35:00,29.8,28.8,29.97,NE,52,0.0,0.0,96,0.00,,,0.00,Wunderground v.1.15,2013-02-14 11:35:00,
2013-02-14 06:40:00,29.8,28.8,29.98,NE,52,0.0,0.0,96,0.00,,,0.00,Wunderground v.1.15,2013-02-14 11:40:00,
2013-02-14 06:45:00,29.7,28.7,29.98,NE,52,0.0,0.0,96,0.00,,,0.00,Wunderground v.1.15,2013-02-14 11:45:00,
2013-02-14 06:55:00,29.5,28.5,29.98,NE,52,0.0,0.0,96,0.00,,,0.00,Wunderground v.1.15,2013-02-14 11:55:00,
2013-02-14 07:00:00,29.4,28.4,29.99,NE,52,0.0,0.0,96,0.00,,,0.00,Wunderground v.1.15,2013-02-14 12:00:00,
2013-02-14 07:10:00,29.3,28.3,29.99,NE,52,0.0,0.0,96,0.00,,,0.00,Wunderground v.1.15,2013-02-14 12:10:00,
2013-02-14 07:15:00,29.3,28.3,29.99,NE,52,0.0,0.0,96,0.00,,,0.00,Wunderground v.1.15,2013-02-14 12:15:00,
2013-02-14 07:20:00,29.3,28.3,30.00,NE,52,0.0,0.0,96,0.00,,,0.00,Wunderground v.1.15,2013-02-14 12:20:00,
2013-02-14 07:25:00,29.3,28.6,30.00,NE,52,0.0,0.0,97,0.00,,,0.00,Wunderground v.1.15,2013-02-14 12:25:00,
2013-02-14 07:35:00,29.2,28.5,30.00,NE,52,0.0,0.0,97,0.00,,,0.00,Wunderground v.1.15,2013-02-14 12:35:00,
2013-02-14 07:40:00,29.2,28.5,30.00,NE,52,0.0,0.0,97,0.00,,,0.00,Wunderground v.1.15,2013-02-14 12:40:00,
2013-02-14 07:45:00,29.3,28.6,30.01,NE,52,0.0,0.0,97,0.00,,,0.00,Wunderground v.1.15,2013-02-14 12:45:00,
2013-02-14 07:50:00,29.3,28.6,30.01,NNE,21,0.0,0.0,97,0.00,,,0.00,Wunderground v.1.15,2013-02-14 12:50:00,
2013-02-14 08:00:00,29.5,28.8,30.02,NNE,21,0.0,0.0,97,0.00,,,0.00,Wunderground v.1.15,2013-02-14 13:00:00,
2013-02-14 08:05:00,29.7,29.0,30.02,NNE,21,0.0,0.0,97,0.00,,,0.00,Wunderground v.1.15,2013-02-14 13:05:00,
2013-02-14 08:15:00,29.9,29.2,30.03,NNE,21,0.0,0.0,97,0.00,,,0.00,Wunderground v.1.15,2013-02-14 13:15:00,
2013-02-14 08:20:00,30.1,29.4,30.03,NNE,21,0.0,0.0,97,0.00,,,0.00,Wunderground v.1.15,2013-02-14 13:20:00,
2013-02-14 08:25:00,30.3,29.6,30.04,NNE,21,0.0,0.0,97,0.00,,,0.00,Wunderground v.1.15,2013-02-14 13:25:00,
2013-02-14 08:30:00,30.6,29.9,30.04,NNE,21,0.0,0.0,97,0.00,,,0.00,Wunderground v.1.15,2013-02-14 13:30:00,
2013-02-14 08:40:00,31.4,30.6,30.06,NNE,21,0.0,0.0,97,0.00,,,0.00,Wunderground v.1.15,2013-02-14 13:40:00,
2013-02-14 08:45:00,31.9,31.1,30.06,NNE,21,0.0,0.0,97,0.00,,,0.00,Wunderground v.1.15,2013-02-14 13:45:00,
2013-02-14 08:50:00,32.6,32.1,30.06,NNE,21,0.0,0.0,98,0.00,,,0.00,Wunderground v.1.15,2013-02-14 13:50:00,
2013-02-14 09:00:00,33.6,33.1,30.06,NNE,21,0.0,0.0,98,0.00,,,0.00,Wunderground v.1.15,2013-02-14 14:00:00,
2013-02-14 09:05:00,34.1,33.6,30.06,NNE,21,0.0,0.0,98,0.00,,,0.00,Wunderground v.1.15,2013-02-14 14:05:00,
2013-02-14 09:10:00,34.6,34.1,30.06,WSW,245,0.0,2.0,98,0.00,,,0.00,Wunderground v.1.15,2013-02-14 14:10:00,
2013-02-14 09:15:00,35.2,34.7,30.05,West,269,0.0,2.0,98,0.00,,,0.00,Wunderground v.1.15,2013-02-14 14:15:00,
2013-02-14 09:25:00,36.3,34.2,30.06,NNE,21,0.0,0.0,92,0.00,,,0.00,Wunderground v.1.15,2013-02-14 14:25:00,
2013-02-14 09:30:00,37.1,34.2,30.06,NNE,20,0.0,0.0,89,0.00,,,0.00,Wunderground v.1.15,2013-02-14 14:30:00,
2013-02-14 09:35:00,38.0,34.2,30.06,WNW,282,0.0,0.0,86,0.00,,,0.00,Wunderground v.1.15,2013-02-14 14:35:00,
2013-02-14 09:45:00,40.1,35.0,30.06,ENE,71,0.0,0.0,82,0.00,,,0.01,Wunderground v.1.15,2013-02-14 14:45:00,
2013-02-14 09:50:00,41.0,34.7,30.06,WNW,301,1.0,2.0,78,0.00,,,0.01,Wunderground v.1.15,2013-02-14 14:50:00,
2013-02-14 09:55:00,41.8,33.1,30.05,ENE,59,1.0,2.0,71,0.00,,,0.01,Wunderground v.1.15,2013-02-14 14:55:00,
2013-02-14 10:05:00,42.9,32.3,30.05,NNW,335,1.0,1.0,66,0.00,,,0.01,Wunderground v.1.15,2013-02-14 15:05:00,
2013-02-14 10:10:00,43.2,32.2,30.05,ENE,67,2.0,4.0,65,0.00,,,0.01,Wunderground v.1.15,2013-02-14 15:10:00,
2013-02-14 10:15:00,43.6,31.8,30.05,NNW,333,2.0,4.0,63,0.00,,,0.01,Wunderground v.1.15,2013-02-14 15:15:00,
2013-02-14 10:20:00,44.0,31.8,30.04,ENE,60,1.0,2.0,62,0.00,,,0.01,Wunderground v.1.15,2013-02-14 15:20:00,
2013-02-14 10:30:00,44.4,31.4,30.05,NE,47,1.0,5.0,60,0.00,,,0.01,Wunderground v.1.15,2013-02-14 15:30:00,
2013-02-14 10:35:00,44.6,30.7,30.05,ENE,67,1.0,5.0,58,0.00,,,0.01,Wunderground v.1.15,2013-02-14 15:35:00,
2013-02-14 10:40:00,44.7,31.7,30.05,ENE,65,2.0,3.0,60,0.00,,,0.01,Wunderground v.1.15,2013-02-14 15:40:00,
2013-02-14 10:50:00,45.2,31.3,30.05,NNE,20,1.0,1.0,58,0.00,,,0.01,Wunderground v.1.15,2013-02-14 15:50:00,
2013-02-14 10:55:00,45.5,31.1,30.05,NW,325,1.0,1.0,57,0.00,,,0.01,Wunderground v.1.15,2013-02-14 15:55:00,
2013-02-14 11:00:00,45.8,31.4,30.06,NNE,12,1.0,1.0,57,0.00,,,0.01,Wunderground v.1.15,2013-02-14 16:00:00,
2013-02-14 11:10:00,46.0,31.6,30.05,North,355,2.0,2.0,57,0.00,,,0.01,Wunderground v.1.15,2013-02-14 16:10:00,
2013-02-14 11:15:00,46.1,30.8,30.05,NNE,23,2.0,3.0,55,0.00,,,0.01,Wunderground v.1.15,2013-02-14 16:15:00,
2013-02-14 11:20:00,46.0,31.2,30.04,SW,229,1.0,1.0,56,0.00,,,0.01,Wunderground v.1.15,2013-02-14 16:20:00,
2013-02-14 11:30:00,46.3,30.1,30.04,East,93,1.0,2.0,53,0.00,,,0.01,Wunderground v.1.15,2013-02-14 16:30:00,
2013-02-14 11:35:00,46.4,29.7,30.04,West,273,1.0,3.0,52,0.00,,,0.01,Wunderground v.1.15,2013-02-14 16:35:00,
2013-02-14 11:40:00,46.4,29.2,30.04,NE,34,1.0,1.0,51,0.00,,,0.01,Wunderground v.1.15,2013-02-14 16:40:00,
2013-02-14 11:50:00,47.1,28.9,30.04,ENE,58,0.0,0.0,49,0.00,,,0.01,Wunderground v.1.15,2013-02-14 16:50:00,
2013-02-14 11:55:00,47.4,28.2,30.04,NE,39,1.0,1.0,47,0.00,,,0.01,Wunderground v.1.15,2013-02-14 16:55:00,
2013-02-14 12:00:00,47.5,28.3,30.05,NE,34,1.0,1.0,47,0.00,,,0.01,Wunderground v.1.15,2013-02-14 17:00:00,
2013-02-14 12:05:00,47.2,28.0,30.04,SSE,148,1.0,2.0,47,0.00,,,0.01,Wunderground v.1.15,2013-02-14 17:05:00,
2013-02-14 12:15:00,47.2,28.5,30.04,NE,56,1.0,2.0,48,0.00,,,0.01,Wunderground v.1.15,2013-02-14 17:15:00,
2013-02-14 12:20:00,47.3,29.1,30.03,NE,56,0.0,0.0,49,0.00,,,0.01,Wunderground v.1.15,2013-02-14 17:20:00,
2013-02-14 12:25:00,47.5,29.8,30.03,ENE,65,0.0,0.0,50,0.00,,,0.01,Wunderground v.1.15,2013-02-14 17:25:00,
2013-02-14 12:35:00,47.7,28.9,30.04,SSE,162,0.0,2.0,48,0.00,,,0.01,Wunderground v.1.15,2013-02-14 17:35:00,
2013-02-14 12:40:00,47.8,28.5,30.03,NW,311,0.0,4.0,47,0.00,,,0.01,Wunderground v.1.15,2013-02-14 17:40:00,
2013-02-14 12:45:00,47.9,28.6,30.03,SSW,194,1.0,4.0,47,0.00,,,0.01,Wunderground v.1.15,2013-02-14 17:45:00,
2013-02-14 12:55:00,48.1,27.2,30.03,SSW,212,1.0,3.0,44,0.00,,,0.01,Wunderground v.1.15,2013-02-14 17:55:00,
2013-02-14 13:00:00,48.2,28.4,30.03,SSW,202,1.0,1.0,46,0.00,,,0.01,Wunderground v.1.15,2013-02-14 18:00:00,
2013-02-14 13:05:00,48.5,30.2,30.03,SSE,167,1.0,1.0,49,0.00,,,0.01,Wunderground v.1.15,2013-02-14 18:05:00,
2013-02-14 13:15:00,48.8,28.9,30.02,WSW,237,1.0,1.0,46,0.00,,,0.01,Wunderground v.1.15,2013-02-14 18:15:00,
2013-02-14 13:20:00,49.0,28.6,30.02,NE,52,1.0,1.0,45,0.00,,,0.01,Wunderground v.1.15,2013-02-14 18:20:00,
2013-02-14 13:25:00,49.3,28.3,30.01,WNW,302,2.0,2.0,44,0.00,,,0.01,Wunderground v.1.15,2013-02-14 18:25:00,
2013-02-14 13:35:00,49.6,28.0,30.02,SW,224,1.0,2.0,43,0.00,,,0.01,Wunderground v.1.15,2013-02-14 18:35:00,
2013-02-14 13:40:00,49.8,28.7,30.02,West,277,1.0,1.0,44,0.00,,,0.01,Wunderground v.1.15,2013-02-14 18:40:00,
2013-02-14 13:45:00,50.1,29.0,30.02,WSW,242,1.0,2.0,44,0.00,,,0.01,Wunderground v.1.15,2013-02-14 18:45:00,
2013-02-14 13:55:00,50.3,30.8,30.01,West,275,1.0,4.0,47,0.00,,,0.01,Wunderground v.1.15,2013-02-14 18:55:00,
2013-02-14 14:00:00,50.1,29.0,30.00,WNW,290,2.0,3.0,44,0.00,,,0.01,Wunderground v.1.15,2013-02-14 19:00:00,
2013-02-14 14:05:00,50.1,29.6,30.00,South,182,2.0,3.0,45,0.00,,,0.01,Wunderground v.1.15,2013-02-14 19:05:00,
2013-02-14 14:10:00,50.6,31.6,30.00,SSE,166,1.0,1.0,48,0.00,,,0.01,Wunderground v.1.15,2013-02-14 19:10:00,
2013-02-14 14:20:00,51.5,31.4,30.00,SW,214,2.0,2.0,46,0.00,,,0.01,Wunderground v.1.15,2013-02-14 19:20:00,
2013-02-14 14:25:00,51.5,30.8,30.00,South,171,3.0,3.0,45,0.00,,,0.01,Wunderground v.1.15,2013-02-14 19:25:00,
2013-02-14 14:30:00,51.4,30.2,29.99,SSE,156,2.0,4.0,44,0.00,,,0.01,Wunderground v.1.15,2013-02-14 19:30:00,
2013-02-14 14:40:00,51.3,32.8,29.99,SSW,207,2.0,2.0,49,0.00,,,0.01,Wunderground v.1.15,2013-02-14 19:40:00,
2013-02-14 14:45:00,51.8,32.2,29.99,SW,236,2.0,2.0,47,0.00,,,0.01,Wunderground v.1.15,2013-02-14 19:45:00,
2013-02-14 14:50:00,51.9,32.8,29.99,SSW,194,2.0,2.0,48,0.00,,,0.01,Wunderground v.1.15,2013-02-14 19:50:00,
2013-02-14 15:00:00,51.4,31.8,29.99,SE,144,1.0,1.0,47,0.00,,,0.01,Wunderground v.1.15,2013-02-14 20:00:00,
2013-02-14 15:05:00,51.5,31.9,29.99,SSE,167,1.0,1.0,47,0.00,,,0.01,Wunderground v.1.15,2013-02-14 20:05:00,
2013-02-14 15:10:00,51.5,31.4,29.99,South,179,2.0,2.0,46,0.00,,,0.01,Wunderground v.1.15,2013-02-14 20:10:00,
2013-02-14 15:15:00,51.3,32.8,29.99,SSW,211,2.0,2.0,49,0.00,,,0.01,Wunderground v.1.15,2013-02-14 20:15:00,
2013-02-14 15:25:00,51.0,30.9,29.99,SSE,162,3.0,4.0,46,0.00,,,0.01,Wunderground v.1.15,2013-02-14 20:25:00,
2013-02-14 15:30:00,51.1,31.6,29.99,SSW,207,3.0,5.0,47,0.00,,,0.01,Wunderground v.1.15,2013-02-14 20:30:00,
2013-02-14 15:35:00,51.0,32.0,29.99,WSW,250,2.0,5.0,48,0.00,,,0.01,Wunderground v.1.15,2013-02-14 20:35:00,
2013-02-14 15:45:00,51.2,32.7,29.99,SW,232,2.0,5.0,49,0.00,,,0.01,Wunderground v.1.15,2013-02-14 20:45:00,
2013-02-14 15:50:00,51.0,32.0,29.99,South,175,3.0,3.0,48,0.00,,,0.01,Wunderground v.1.15,2013-02-14 20:50:00,
2013-02-14 15:55:00,50.8,30.7,29.99,WSW,246,3.0,4.0,46,0.00,,,0.01,Wunderground v.1.15,2013-02-14 20:55:00,
2013-02-14 16:00:00,50.6,31.6,29.99,SSW,196,3.0,3.0,48,0.00,,,0.01,Wunderground v.1.15,2013-02-14 21:00:00,
2013-02-14 16:10:00,50.4,31.9,30.00,West,265,2.0,2.0,49,0.00,,,0.01,Wunderground v.1.15,2013-02-14 21:10:00,
2013-02-14 16:15:00,50.4,32.4,30.00,SSW,202,1.0,3.0,50,0.00,,,0.01,Wunderground v.1.15,2013-02-14 21:15:00,
2013-02-14 16:25:00,50.1,32.2,30.00,South,184,2.0,2.0,50,0.00,,,0.01,Wunderground v.1.15,2013-02-14 21:25:00,
2013-02-14 16:30:00,50.1,32.2,30.00,SW,234,1.0,1.0,50,0.00,,,0.01,Wunderground v.1.15,2013-02-14 21:30:00,
2013-02-14 16:35:00,50.0,32.1,30.00,WSW,242,1.0,1.0,50,0.00,,,0.01,Wunderground v.1.15,2013-02-14 21:35:00,
2013-02-14 16:40:00,50.0,33.1,30.00,SSW,194,1.0,1.0,52,0.00,,,0.01,Wunderground v.1.15,2013-02-14 21:40:00,
2013-02-14 16:50:00,49.8,32.9,30.00,WNW,286,1.0,1.0,52,0.00,,,0.01,Wunderground v.1.15,2013-02-14 21:50:00,
2013-02-14 16:55:00,49.7,32.8,29.99,SW,220,1.0,1.0,52,0.00,,,0.01,Wunderground v.1.15,2013-02-14 21:55:00,
2013-02-14 17:00:00,49.6,33.6,29.99,SSE,152,1.0,1.0,54,0.00,,,0.01,Wunderground v.1.15,2013-02-14 22:00:00,
2013-02-14 17:05:00,49.4,33.4,29.99,South,173,0.0,1.0,54,0.00,,,0.01,Wunderground v.1.15,2013-02-14 22:05:00,
2013-02-14 17:15:00,49.3,33.8,30.00,West,265,0.0,2.0,55,0.00,,,0.01,Wunderground v.1.15,2013-02-14 22:15:00,
2013-02-14 17:20:00,49.3,33.3,30.00,SW,225,1.0,1.0,54,0.00,,,0.01,Wunderground v.1.15,2013-02-14 22:20:00,
2013-02-14 17:25:00,49.2,32.8,29.99,SW,227,0.0,1.0,53,0.00,,,0.01,Wunderground v.1.15,2013-02-14 22:25:00,
2013-02-14 17:35:00,49.0,33.5,29.99,SW,216,0.0,1.0,55,0.00,,,0.01,Wunderground v.1.15,2013-02-14 22:35:00,
2013-02-14 17:40:00,48.8,33.8,30.00,SW,217,0.0,0.0,56,0.00,,,0.01,Wunderground v.1.15,2013-02-14 22:40:00,
2013-02-14 17:45:00,48.5,33.5,29.99,SW,217,0.0,0.0,56,0.00,,,0.01,Wunderground v.1.15,2013-02-14 22:45:00,
2013-02-14 17:55:00,47.9,33.8,29.99,SW,217,0.0,0.0,58,0.00,,,0.01,Wunderground v.1.15,2013-02-14 22:55:00,
2013-02-14 18:00:00,47.7,34.1,29.99,SW,217,0.0,0.0,59,0.00,,,0.01,Wunderground v.1.15,2013-02-14 23:00:00,
2013-02-14 18:05:00,47.1,35.5,29.99,SW,217,0.0,0.0,64,0.00,,,0.01,Wunderground v.1.15,2013-02-14 23:05:00,
2013-02-14 18:15:00,45.9,35.2,29.99,SW,217,0.0,0.0,66,0.00,,,0.01,Wunderground v.1.15,2013-02-14 23:15:00,
2013-02-14 18:20:00,45.3,36.1,29.99,SW,217,0.0,0.0,70,0.00,,,0.01,Wunderground v.1.15,2013-02-14 23:20:00,
2013-02-14 18:25:00,44.6,35.8,30.00,SW,217,0.0,0.0,71,0.00,,,0.01,Wunderground v.1.15,2013-02-14 23:25:00,
2013-02-14 18:30:00,43.9,35.8,30.00,SW,217,0.0,0.0,73,0.00,,,0.01,Wunderground v.1.15,2013-02-14 23:30:00,
2013-02-14 18:40:00,42.5,34.8,30.01,SW,217,0.0,0.0,74,0.00,,,0.01,Wunderground v.1.15,2013-02-14 23:40:00,
2013-02-14 18:45:00,41.9,34.9,30.01,SW,217,0.0,0.0,76,0.00,,,0.01,Wunderground v.1.15,2013-02-14 23:45:00,
2013-02-14 18:50:00,41.3,34.6,30.01,SW,217,0.0,0.0,77,0.00,,,0.01,Wunderground v.1.15,2013-02-14 23:50:00,
2013-02-14 19:00:00,40.3,34.3,30.01,SW,217,0.0,0.0,79,0.00,,,0.01,Wunderground v.1.15,2013-02-15 00:00:00,
2013-02-14 19:05:00,39.7,34.0,30.01,SW,217,0.0,0.0,80,0.00,,,0.01,Wunderground v.1.15,2013-02-15 00:05:00,
2013-02-14 19:10:00,39.3,34.0,30.01,SW,217,0.0,0.0,81,0.00,,,0.01,Wunderground v.1.15,2013-02-15 00:10:00,
2013-02-14 19:20:00,38.6,33.9,30.01,SW,217,0.0,0.0,83,0.00,,,0.01,Wunderground v.1.15,2013-02-15 00:20:00,
2013-02-14 19:25:00,38.3,33.6,30.01,SW,217,0.0,0.0,83,0.00,,,0.01,Wunderground v.1.15,2013-02-15 00:25:00,
2013-02-14 19:30:00,37.9,33.5,30.01,SW,217,0.0,0.0,84,0.00,,,0.01,Wunderground v.1.15,2013-02-15 00:30:00,
2013-02-14 19:35:00,37.6,33.2,30.01,SW,217,0.0,0.0,84,0.00,,,0.01,Wunderground v.1.15,2013-02-15 00:35:00,
2013-02-14 19:45:00,37.1,33.0,30.01,SW,217,0.0,0.0,85,0.00,,,0.01,Wunderground v.1.15,2013-02-15 00:45:00,
2013-02-14 19:50:00,36.8,32.7,30.01,SW,217,0.0,0.0,85,0.00,,,0.01,Wunderground v.1.15,2013-02-15 00:50:00,
2013-02-14 19:55:00,36.6,32.8,30.01,SW,217,0.0,0.0,86,0.00,,,0.01,Wunderground v.1.15,2013-02-15 00:55:00,
2013-02-14 20:05:00,36.2,32.4,30.01,SW,217,0.0,0.0,86,0.00,,,0.01,Wunderground v.1.15,2013-02-15 01:05:00,
2013-02-14 20:10:00,35.9,32.1,30.02,SW,217,0.0,0.0,86,0.00,,,0.01,Wunderground v.1.15,2013-02-15 01:10:00,
2013-02-14 20:15:00,35.7,32.2,30.02,SW,217,0.0,0.0,87,0.00,,,0.01,Wunderground v.1.15,2013-02-15 01:15:00,
2013-02-14 20:25:00,35.2,32.3,30.02,SW,217,0.0,0.0,89,0.00,,,0.01,Wunderground v.1.15,2013-02-15 01:25:00,
2013-02-14 20:30:00,35.2,32.6,30.02,SW,217,0.0,0.0,90,0.00,,,0.01,Wunderground v.1.15,2013-02-15 01:30:00,
2013-02-14 20:35:00,35.2,32.6,30.03,SW,217,0.0,0.0,90,0.00,,,0.01,Wunderground v.1.15,2013-02-15 01:35:00,
2013-02-14 20:40:00,35.0,32.4,30.03,SW,217,0.0,0.0,90,0.00,,,0.01,Wunderground v.1.15,2013-02-15 01:40:00,
2013-02-14 20:50:00,34.7,32.3,30.04,SW,217,0.0,0.0,91,0.00,,,0.01,Wunderground v.1.15,2013-02-15 01:50:00,
2013-02-14 20:55:00,34.6,32.2,30.04,SW,217,0.0,0.0,91,0.00,,,0.01,Wunderground v.1.15,2013-02-15 01:55:00,
2013-02-14 21:00:00,34.5,32.1,30.04,SW,217,0.0,0.0,91,0.00,,,0.01,Wunderground v.1.15,2013-02-15 02:00:00,
2013-02-14 21:10:00,34.3,31.9,30.04,SW,217,0.0,0.0,91,0.00,,,0.01,Wunderground v.1.15,2013-02-15 02:10:00,
2013-02-14 21:15:00,34.2,31.8,30.05,SW,217,0.0,0.0,91,0.00,,,0.01,Wunderground v.1.15,2013-02-15 02:15:00,
2013-02-14 21:20:00,34.1,31.7,30.05,SW,217,0.0,0.0,91,0.00,,,0.01,Wunderground v.1.15,2013-02-15 02:20:00,
2013-02-14 21:30:00,34.0,31.6,30.05,SW,217,0.0,0.0,91,0.00,,,0.01,Wunderground v.1.15,2013-02-15 02:30:00,
2013-02-14 21:35:00,34.2,32.1,30.05,SW,217,0.0,0.0,92,0.00,,,0.01,Wunderground v.1.15,2013-02-15 02:35:00,
2013-02-14 21:40:00,34.4,32.0,30.06,SW,217,0.0,0.0,91,0.00,,,0.01,Wunderground v.1.15,2013-02-15 02:40:00,
2013-02-14 21:50:00,35.7,32.8,30.06,SW,217,0.0,0.0,89,0.00,,,0.01,Wunderground v.1.15,2013-02-15 02:50:00,
2013-02-14 21:55:00,36.7,33.2,30.06,SW,217,0.0,0.0,87,0.00,,,0.01,Wunderground v.1.15,2013-02-15 02:55:00,
2013-02-14 22:00:00,37.3,33.2,30.07,SW,217,0.0,0.0,85,0.00,,,0.01,Wunderground v.1.15,2013-02-15 03:00:00,
2013-02-14 22:05:00,37.7,33.3,30.07,SW,217,0.0,0.0,84,0.00,,,0.01,Wunderground v.1.15,2013-02-15 03:05:00,
2013-02-14 22:15:00,38.0,33.3,30.06,SW,217,0.0,0.0,83,0.00,,,0.01,Wunderground v.1.15,2013-02-15 03:15:00,
2013-02-14 22:20:00,37.8,33.1,30.06,SW,217,0.0,0.0,83,0.00,,,0.01,Wunderground v.1.15,2013-02-15 03:20:00,
2013-02-14 22:25:00,37.5,33.1,30.06,SW,217,0.0,0.0,84,0.00,,,0.01,Wunderground v.1.15,2013-02-15 03:25:00,
2013-02-14 22:35:00,36.8,32.7,30.05,SW,217,0.0,0.0,85,0.00,,,0.01,Wunderground v.1.15,2013-02-15 03:35:00,
2013-02-14 22:40:00,36.3,32.5,30.06,SW,217,0.0,0.0,86,0.00,,,0.01,Wunderground v.1.15,2013-02-15 03:40:00,
2013-02-14 22:45:00,35.9,32.1,30.06,SW,217,0.0,0.0,86,0.00,,,0.01,Wunderground v.1.15,2013-02-15 03:45:00,
2013-02-14 22:50:00,35.5,32.0,30.05,SW,217,0.0,0.0,87,0.00,,,0.01,Wunderground v.1.15,2013-02-15 03:50:00,
2013-02-14 23:00:00,34.9,32.0,30.05,SW,217,0.0,0.0,89,0.00,,,0.01,Wunderground v.1.15,2013-02-15 04:00:00,
2013-02-14 23:05:00,34.6,31.7,30.05,SW,217,0.0,0.0,89,0.00,,,0.01,Wunderground v.1.15,2013-02-15 04:05:00,
2013-02-14 23:10:00,34.2,31.3,30.05,SW,217,0.0,0.0,89,0.00,,,0.01,Wunderground v.1.15,2013-02-15 04:10:00,
2013-02-14 23:20:00,33.7,31.1,30.05,SW,217,0.0,0.0,90,0.00,,,0.01,Wunderground v.1.15,2013-02-15 04:20:00,
2013-02-14 23:25:00,33.5,31.2,30.05,SW,217,0.0,0.0,91,0.00,,,0.01,Wunderground v.1.15,2013-02-15 04:25:00,
2013-02-14 23:30:00,33.3,31.0,30.05,SW,217,0.0,0.0,91,0.00,,,0.01,Wunderground v.1.15,2013-02-15 04:30:00,
2013-02-14 23:40:00,32.9,30.6,30.05,SW,217,0.0,0.0,91,0.00,,,0.01,Wunderground v.1.15,2013-02-15 04:40:00,
2013-02-14 23:45:00,32.7,30.4,30.05,SW,217,0.0,0.0,91,0.00,,,0.01,Wunderground v.1.15,2013-02-15 04:45:00,
2013-02-14 23:50:00,32.6,30.5,30.05,SW,217,0.0,0.0,92,0.00,,,0.01,Wunderground v.1.15,2013-02-15 04:50:00,
2013-02-14 23:55:00,32.4,30.3,30.05,SW,217,0.0,0.0,92,0.00,,,0.01,Wunderground v.1.15,2013-02-15 04:55:00,